[[{"header":{"parameterUnit":"m.s-1","parameterCategory":1,"la1":30.2991,"la2":30.254,"lo1":-89.0895,"lo2":-89.0444,"dy":0.0017,"dx":0.0017,"nx":28,"ny":28,"refTime":"2025-11-23T03:00:00:Z","depth":0,"parameterNumber":2,"parameterNumberName":"U-component_of_WINDS"},"data":[0,0,0,0,0,0,0,0,0,0,0,0,0,0,0,0,0,0,0,0,0,0,0,0,0,0,0,0,0,0,0,0,0,0,0,0,0,0,0,0,0,0,0,0,0,0,0,0,0,0,0,0,0,0,0,0,0,0,0.663,0.663,0,0.66,0.66,0.6599,0.6553,0.6553,0.6552,0.6551,0.6522,0.6522,0.6522,0,0,0,0,0,0,0,0,0,0,0,0,0,0.665,0.6649,0.663,0.663,0.663,0.66,0.66,0.6599,0.6554,0.6553,0.6552,0.6551,0.6522,0.6522,0.6522,0,0,0,0,0,0,0,0,0,0,0,0,0,0.6633,0.6649,0.663,0.6603,0.66,0.66,0.66,0.6599,0.6554,0.6553,0.6551,0.655,0.6522,0.6522,0.6522,0.6547,0,0,0.6522,0.6522,0,0,0,0,0,0,0,0,0.6634,0.6632,0.6608,0.6605,0.6602,0.6579,0.6596,0.6582,0.6554,0.6572,0.6551,0.655,0.6542,0.654,0.6537,0.6545,0.6544,0.6522,0.6522,0.6522,0.6522,0,0,0,0,0,0,0,0.6635,0.6633,0.6618,0.6607,0.6604,0.6593,0.6589,0.6593,0.6564,0.657,0.6567,0.6563,0.654,0.6538,0.6536,0.6543,0.6522,0.6522,0.6522,0.6522,0.6569,0.657,0,0,0,0,0,0,0.664,0.6634,0.6619,0.6617,0.6615,0.6593,0.6589,0.6588,0.6564,0.6559,0.6565,0.6561,0.6538,0.6537,0.6535,0.6561,0.6522,0.6522,0.6522,0.6567,0.6569,0.657,0,0,0,0,0,0,0.664,0.6639,0.6621,0.6625,0.6622,0.6594,0.6593,0.6588,0.6585,0.656,0.6555,0.6567,0.6537,0.6535,0.6544,0.656,0.6522,0.6522,0.6566,0.6568,0.657,0.6614,0,0,0,0,0,0,0.6641,0.6639,0.6648,0.6625,0.6622,0.6629,0.6594,0.6588,0.6585,0.658,0.6561,0.6556,0.6536,0.6544,0.6544,0.6559,0.6522,0.6564,0.6567,0.6569,0.6611,0.6617,0.6623,0,0,0,0,0,0.6642,0.6663,0.6649,0.6647,0.6632,0.663,0.6628,0.6604,0.6586,0.6595,0.6579,0.6557,0.6558,0.6545,0.6544,0.656,0.6563,0.6566,0.6569,0.6609,0.6616,0.6622,0,0,0,0,0,0,0.6689,0.6659,0.6644,0.6657,0.6647,0.6622,0.6632,0.6613,0.6607,0.6603,0.6574,0.657,0.6582,0.6572,0.6558,0.6582,0.6557,0.656,0.6588,0.6595,0.66,0.6602,0.6522,0,0,0,0,0,0.6701,0.6701,0.6675,0.669,0.6685,0.666,0.6658,0.6641,0.6628,0.6624,0.6608,0.6598,0.6596,0.6595,0.6592,0.661,0.6604,0.662,0.6626,0.6631,0.6633,0.6641,0.6647,0.6579,0.6579,0.6579,0,0,0.6725,0.6709,0.6711,0.6699,0.6689,0.669,0.6657,0.666,0.666,0.6625,0.6631,0.6619,0.6606,0.6619,0.6624,0.6611,0.6651,0.6634,0.6639,0.6638,0.6645,0.6651,0.6657,0.6581,0.6581,0.6581,0,0,0.677,0.6758,0.6768,0.6759,0.6743,0.6726,0.6728,0.6707,0.6698,0.6703,0.6676,0.6677,0.6674,0.6665,0.666,0.6702,0.6681,0.6702,0.6731,0.6739,0.6745,0.6749,0.6763,0.6768,0.6704,0.6705,0.6705,0,0.6802,0.6803,0.6777,0.6781,0.6776,0.6743,0.6753,0.6745,0.6729,0.6727,0.6713,0.6708,0.6696,0.6706,0.6716,0.6714,0.6715,0.6703,0.6746,0.675,0.6754,0.6766,0.6772,0.6707,0.6707,0.6707,0.6706,0,0.6843,0.6844,0.6854,0.6838,0.6835,0.6842,0.6817,0.6817,0.68,0.6784,0.679,0.6776,0.6768,0.677,0.6753,0.6777,0.6769,0.6751,0.6725,0.6763,0.6774,0.6779,0.6711,0.671,0.6709,0.6708,0,0,0.6916,0.6885,0.6889,0.6881,0.6862,0.6862,0.6868,0.686,0.686,0.685,0.6854,0.6852,0.6835,0.6829,0.6812,0.6819,0.6851,0.6799,0.6799,0.6808,0.6875,0.6888,0.6894,0.6838,0.6838,0.6839,0.6875,0,0.6955,0.6963,0.6939,0.6952,0.6952,0.6921,0.6926,0.6915,0.6901,0.6899,0.6884,0.6882,0.686,0.6856,0.6862,0.6846,0.6864,0.6843,0.684,0.684,0.6843,0.69,0.6913,0.6948,0.688,0.688,0.6881,0,0.7003,0.6994,0.7008,0.6986,0.6985,0.699,0.698,0.6979,0.6966,0.6955,0.6948,0.6928,0.6932,0.6908,0.6914,0.69,0.6898,0.689,0.6891,0.6888,0.6862,0.6897,0.6959,0.6964,0.6888,0.6887,0.6887,0,0.7053,0.7045,0.7052,0.7046,0.7022,0.7026,0.7016,0.7001,0.6997,0.6989,0.6987,0.698,0.6976,0.6971,0.6949,0.6934,0.6956,0.6931,0.6947,0.6947,0.6952,0.6952,0.7012,0.6953,0.6953,0.6953,0.6953,0,0.7099,0.7107,0.7073,0.7077,0.7086,0.706,0.7069,0.7056,0.7043,0.7044,0.7018,0.7019,0.6991,0.6989,0.6973,0.6979,0.6978,0.6969,0.6964,0.697,0.6971,0.6967,0.6963,0.6954,0.6954,0.6954,0.6954,0,0.7155,0.7133,0.7138,0.7114,0.7108,0.7116,0.7096,0.7098,0.7082,0.7084,0.7083,0.7058,0.7055,0.7033,0.7025,0.7013,0.7025,0.7017,0.7029,0.7026,0.7042,0.704,0.7101,0.7107,0.7046,0.7047,0.7047,0,0.7185,0.7191,0.7168,0.7166,0.7157,0.7155,0.7151,0.7125,0.7122,0.7107,0.7111,0.7106,0.7099,0.7096,0.7077,0.7071,0.7061,0.7083,0.706,0.7066,0.7059,0.7059,0.7059,0.7087,0.7088,0.7089,0.7089,0,0.724,0.7229,0.7224,0.7215,0.721,0.7202,0.7193,0.7193,0.7164,0.7162,0.7158,0.7153,0.7145,0.7139,0.7129,0.712,0.7099,0.7097,0.71,0.7105,0.7112,0.7107,0.7041,0.7095,0.7095,0.7094,0.7094,0.7094,0.7283,0.7287,0.7271,0.7266,0.7255,0.7247,0.7248,0.7232,0.7228,0.7218,0.7203,0.7201,0.7187,0.7171,0.7163,0.7161,0.715,0.7154,0.7155,0.7156,0.7159,0.7114,0.716,0.7159,0.7159,0.7159,0.7159,0,0.7336,0.7324,0.732,0.7306,0.7302,0.7284,0.7272,0.727,0.7268,0.7256,0.725,0.7245,0.724,0.7221,0.7213,0.7215,0.7206,0.7214,0.7213,0.7211,0.7171,0.7168,0.7222,0.7222,0.7222,0.7222,0.7222,0.7222,0.7363,0.7367,0.7353,0.7352,0.734,0.7337,0.7332,0.7324,0.7314,0.7309,0.7304,0.7292,0.7277,0.7268,0.7262,0.7257,0.7254,0.7266,0.7257,0.722,0.7214,0.7208,0.7205,0.7266,0.7266,0.7297,0.7297,0.7297]},{"header":{"parameterUnit":"m.s-1","parameterCategory":1,"la1":30.2991,"la2":30.254,"lo1":-89.0895,"lo2":-89.0444,"dy":0.0017,"dx":0.0017,"nx":28,"ny":28,"refTime":"2025-11-23T03:00:00:Z","depth":0,"parameterNumber":3,"parameterNumberName":"V-component_of_WINDS"},"data":[0,0,0,0,0,0,0,0,0,0,0,0,0,0,0,0,0,0,0,0,0,0,0,0,0,0,0,0,0,0,0,0,0,0,0,0,0,0,0,0,0,0,0,0,0,0,0,0,0,0,0,0,0,0,0,0,0,0,2.3774,2.3774,0,2.3797,2.3797,2.3798,2.3771,2.377,2.3769,2.3768,2.3788,2.379,2.3791,0,0,0,0,0,0,0,0,0,0,0,0,0,2.3703,2.3705,2.3774,2.3774,2.3775,2.3797,2.3797,2.3798,2.3771,2.377,2.3768,2.3767,2.3788,2.3789,2.3791,0,0,0,0,0,0,0,0,0,0,0,0,0,2.3731,2.3705,2.3774,2.3764,2.3763,2.3797,2.3797,2.3798,2.3771,2.377,2.3768,2.3767,2.3787,2.3789,2.3791,2.3835,0,0,2.3798,2.3799,0,0,0,0,0,0,0,0,2.3729,2.3733,2.3765,2.3765,2.3764,2.378,2.378,2.381,2.3771,2.3768,2.3768,2.3766,2.3786,2.3788,2.3796,2.3836,2.3837,2.3798,2.38,2.3801,2.3801,0,0,0,0,0,0,0,2.3727,2.3732,2.3783,2.3766,2.3765,2.3757,2.3759,2.3785,2.3785,2.3768,2.3766,2.377,2.3786,2.3794,2.3796,2.3837,2.3798,2.38,2.3802,2.3803,2.3913,2.3914,0,0,0,0,0,0,2.3727,2.3731,2.3782,2.3784,2.3743,2.376,2.3762,2.3776,2.3785,2.3785,2.3771,2.3768,2.3791,2.3794,2.3797,2.3848,2.3801,2.3803,2.3804,2.3911,2.3913,2.3915,0,0,0,0,0,0,2.3726,2.3732,2.3781,2.3757,2.3763,2.3763,2.3778,2.3777,2.3786,2.3787,2.3786,2.378,2.379,2.3794,2.3826,2.3848,2.3804,2.3806,2.3909,2.3912,2.3914,2.395,0,0,0,0,0,0,2.3724,2.3732,2.3749,2.3757,2.3764,2.3811,2.378,2.3779,2.379,2.3787,2.3795,2.3795,2.3789,2.3823,2.3828,2.385,2.3808,2.3907,2.391,2.3913,2.3947,2.3953,2.3959,0,0,0,0,0,2.3721,2.3758,2.375,2.3757,2.3786,2.3812,2.3816,2.3809,2.3792,2.3809,2.3809,2.3795,2.3845,2.3826,2.3832,2.3855,2.3906,2.391,2.3913,2.3944,2.3952,2.3959,0,0,0,0,0,0,2.3751,2.3759,2.375,2.3791,2.3801,2.3808,2.3829,2.3818,2.3833,2.3829,2.3819,2.3822,2.3855,2.3859,2.3837,2.3897,2.3872,2.3877,2.3894,2.3902,2.3908,2.3906,2.3809,0,0,0,0,0,2.3763,2.3785,2.379,2.3825,2.3831,2.3829,2.384,2.3834,2.3844,2.3848,2.3851,2.3861,2.3878,2.389,2.3907,2.3947,2.3948,2.3966,2.3972,2.3977,2.3981,2.4002,2.401,2.3927,2.3927,2.3927,0,0,2.3786,2.3793,2.3808,2.3831,2.3839,2.386,2.3833,2.3857,2.3873,2.3852,2.3882,2.3885,2.3894,2.393,2.3947,2.3934,2.4005,2.3982,2.3986,2.3987,2.4006,2.4014,2.4021,2.3929,2.3929,2.3928,0,0,2.384,2.3849,2.3878,2.3886,2.3898,2.3897,2.3904,2.3912,2.3913,2.3944,2.3928,2.3946,2.3977,2.3984,2.3992,2.4048,2.4035,2.4054,2.4085,2.4105,2.4112,2.4117,2.4136,2.4144,2.4058,2.4058,2.4058,0,2.3868,2.3901,2.3895,2.392,2.393,2.3913,2.3942,2.395,2.3966,2.3973,2.3959,2.3997,2.4003,2.404,2.4054,2.4061,2.4068,2.4052,2.4112,2.4117,2.4122,2.414,2.4148,2.406,2.406,2.406,2.4059,0,2.3934,2.3957,2.3979,2.3996,2.4009,2.4036,2.4033,2.4046,2.4039,2.4039,2.4069,2.4075,2.4092,2.4101,2.4094,2.4137,2.4128,2.4113,2.4088,2.4133,2.4149,2.4156,2.4063,2.4062,2.4062,2.4061,0,0,2.4007,2.402,2.4028,2.4035,2.4047,2.4064,2.409,2.4107,2.4118,2.413,2.4151,2.4177,2.4163,2.4172,2.4165,2.4183,2.4226,2.4166,2.4166,2.4176,2.4273,2.4283,2.4292,2.4218,2.4219,2.422,2.4271,0,2.4061,2.4107,2.4101,2.4144,2.4165,2.4149,2.4171,2.418,2.418,2.4196,2.4196,2.4215,2.4195,2.42,2.4217,2.4217,2.4245,2.4214,2.4235,2.4236,2.4233,2.43,2.4312,2.436,2.4278,2.4279,2.428,0,2.4129,2.4144,2.4189,2.4197,2.4205,2.4226,2.4241,2.4257,2.4266,2.4265,2.4275,2.4265,2.429,2.4264,2.4297,2.4276,2.4284,2.4286,2.4287,2.4289,2.426,2.4302,2.4376,2.4383,2.429,2.429,2.4289,0,2.4177,2.4208,2.4239,2.4246,2.4256,2.427,2.4274,2.4282,2.4293,2.4306,2.4312,2.4327,2.4336,2.4347,2.4341,2.4324,2.4375,2.4349,2.4374,2.4374,2.4384,2.4384,2.4459,2.4392,2.4391,2.4391,2.4391,0,2.4236,2.4265,2.426,2.4279,2.431,2.4303,2.4333,2.4336,2.4343,2.4361,2.4348,2.4365,2.4356,2.4373,2.4368,2.4396,2.4399,2.4398,2.4397,2.4399,2.4399,2.4404,2.44,2.4393,2.4393,2.4392,2.4392,0,2.4295,2.4293,2.4326,2.4333,2.4335,2.4357,2.4362,2.4379,2.4379,2.4402,2.4407,2.4405,2.4424,2.4419,2.4439,2.4436,2.447,2.4465,2.4467,2.4466,2.449,2.4487,2.4571,2.4581,2.4507,2.4508,2.4508,0,2.4332,2.4354,2.4363,2.4375,2.4381,2.44,2.441,2.4404,2.4416,2.4427,2.4443,2.446,2.4474,2.4504,2.4504,2.4519,2.4513,2.4541,2.4515,2.4516,2.4512,2.4511,2.4512,2.4546,2.4547,2.4547,2.4548,0,2.4399,2.4397,2.4414,2.443,2.4444,2.4456,2.4467,2.4477,2.4471,2.4485,2.4504,2.4515,2.4535,2.4552,2.4566,2.4569,2.4557,2.4556,2.4562,2.4565,2.4565,2.4564,2.4481,2.4554,2.4553,2.4553,2.4553,2.4552,2.4448,2.4466,2.4475,2.4494,2.4501,2.4512,2.4528,2.4529,2.4546,2.4562,2.4557,2.4579,2.4586,2.4604,2.4609,2.4625,2.4614,2.4623,2.4625,2.4627,2.463,2.4563,2.4627,2.4627,2.4627,2.4627,2.4627,0,2.4513,2.4518,2.4536,2.4552,2.4566,2.4555,2.4566,2.4578,2.4598,2.4606,2.462,2.4641,2.4658,2.4659,2.4674,2.4687,2.4682,2.4691,2.4689,2.469,2.4639,2.4632,2.4695,2.4695,2.4695,2.4695,2.4695,2.4695,2.4549,2.4578,2.4577,2.461,2.4615,2.4636,2.4644,2.4653,2.4659,2.4684,2.4698,2.4699,2.4704,2.472,2.4734,2.4734,2.4739,2.4751,2.4748,2.4701,2.4694,2.4687,2.468,2.4752,2.4752,2.4798,2.4798,2.4799]}]]